FDB121 OPSD-OPLA

Flight info

Callsign FDB121
Flight time 0h 58m
Altitude 36000
Route DELDA J125 RN/N0455F350 Z306 INDEK J121 AKBER
Aircraft B738/M-SDE2E3FGHIRWXY/LB1

Departure

Time 2026-04-25 02:17
Airport Skardu International Airport (OPSD)

Arrival

Time 2026-04-25 03:16
Airport Allama Iqbal International Airport (OPLA)
Time Latitude Longitude Altitude Speed Heading
2026-04-25 02:03 35.33088 75.54138 7380 ft 0 kts 147°
2026-04-25 02:11 35.33085 75.54140 7383 ft 3 kts 147°
2026-04-25 02:12 35.33067 75.54159 7381 ft 4 kts 98°
2026-04-25 02:12 35.33088 75.54168 7382 ft 4 kts 329°
2026-04-25 02:12 35.33114 75.54136 7384 ft 7 kts 347°
2026-04-25 02:12 35.33157 75.54176 7383 ft 9 kts 54°
2026-04-25 02:13 35.33176 75.54209 7383 ft 0 kts 57°
2026-04-25 02:13 35.33191 75.54237 7381 ft 10 kts 57°
2026-04-25 02:13 35.33205 75.54265 7381 ft 1 kts 57°
2026-04-25 02:13 35.33253 75.54354 7380 ft 18 kts 57°
2026-04-25 02:14 35.33319 75.54479 7379 ft 17 kts 57°
2026-04-25 02:14 35.33346 75.54615 7378 ft 20 kts 133°
2026-04-25 02:14 35.33225 75.54713 7377 ft 21 kts 148°
2026-04-25 02:14 35.33106 75.54808 7377 ft 20 kts 145°
2026-04-25 02:15 35.32988 75.54901 7378 ft 21 kts 148°
2026-04-25 02:15 35.32972 75.54913 7378 ft 21 kts 147°
2026-04-25 02:15 35.32870 75.54993 7379 ft 28 kts 147°
2026-04-25 02:16 35.32724 75.55060 7382 ft 11 kts 169°
2026-04-25 02:16 35.32747 75.55092 7382 ft 10 kts 325°
2026-04-25 02:16 35.32935 75.54940 7379 ft 66 kts 327°
2026-04-25 02:16 35.33509 75.54485 7382 ft 130 kts 327°
2026-04-25 02:17 35.34432 75.53756 7388 ft 184 kts 327°
2026-04-25 02:17 35.35579 75.52803 7750 ft 208 kts 326°
2026-04-25 02:17 35.36803 75.51778 8321 ft 217 kts 325°
2026-04-25 02:17 35.38051 75.50679 8917 ft 228 kts 322°
2026-04-25 02:18 35.39338 75.49459 9473 ft 237 kts 322°
2026-04-25 02:18 35.40674 75.48174 9894 ft 250 kts 322°
2026-04-25 02:18 35.42085 75.46793 10256 ft 269 kts 320°
2026-04-25 02:18 35.43486 75.45248 10857 ft 275 kts 313°
2026-04-25 02:19 35.44742 75.43432 11530 ft 282 kts 307°
2026-04-25 02:19 35.45906 75.41476 12304 ft 282 kts 304°
2026-04-25 02:19 35.46618 75.40165 12958 ft 275 kts 301°
2026-04-25 02:19 35.47699 75.38226 13790 ft 275 kts 308°
2026-04-25 02:20 35.49519 75.36033 14683 ft 280 kts 321°
2026-04-25 02:20 35.50595 75.35063 15020 ft 287 kts 323°
2026-04-25 02:20 35.52248 75.33590 15451 ft 300 kts 321°
2026-04-25 02:20 35.53841 75.31861 15832 ft 311 kts 310°
2026-04-25 02:21 35.55149 75.29697 16252 ft 322 kts 298°
2026-04-25 02:21 35.56147 75.27234 16752 ft 329 kts 293°
2026-04-25 02:21 35.57042 75.24638 17407 ft 332 kts 290°
2026-04-25 02:21 35.57884 75.21961 17979 ft 337 kts 289°
2026-04-25 02:22 35.58731 75.19206 18252 ft 354 kts 289°
2026-04-25 02:22 35.59603 75.16304 18406 ft 371 kts 286°
2026-04-25 02:22 35.59967 75.13116 18557 ft 383 kts 266°
2026-04-25 02:22 35.59392 75.09961 18967 ft 387 kts 246°
2026-04-25 02:23 35.57949 75.07182 19561 ft 387 kts 229°
2026-04-25 02:23 35.56240 75.04629 20150 ft 386 kts 239°
2026-04-25 02:23 35.55068 75.01654 20631 ft 389 kts 248°
2026-04-25 02:23 35.54076 74.98529 21068 ft 394 kts 249°
2026-04-25 02:24 35.53119 74.95374 21576 ft 395 kts 250°
2026-04-25 02:24 35.52169 74.92198 22104 ft 396 kts 250°
2026-04-25 02:24 35.51221 74.89019 22725 ft 395 kts 250°
2026-04-25 02:24 35.50291 74.85902 23322 ft 394 kts 250°
2026-04-25 02:25 35.49345 74.82736 23822 ft 396 kts 250°
2026-04-25 02:25 35.48352 74.79567 24178 ft 400 kts 248°
2026-04-25 02:25 35.47227 74.76427 24535 ft 402 kts 246°
2026-04-25 02:25 35.46048 74.73298 24913 ft 403 kts 246°
2026-04-25 02:26 35.44863 74.70176 25307 ft 404 kts 246°
2026-04-25 02:26 35.44826 74.70079 25315 ft 0 kts 246°
2026-04-25 02:26 35.44737 74.69834 25362 ft 403 kts 248°
2026-04-25 02:27 35.43655 74.66888 25707 ft 406 kts 246°
2026-04-25 02:27 35.42471 74.63721 26044 ft 409 kts 246°
2026-04-25 02:27 35.41282 74.60541 26441 ft 410 kts 246°
2026-04-25 02:27 35.40093 74.57353 26813 ft 411 kts 247°
2026-04-25 02:28 35.38904 74.54149 27044 ft 413 kts 247°
2026-04-25 02:28 35.37713 74.50937 27382 ft 415 kts 247°
2026-04-25 02:28 35.36521 74.47703 27740 ft 416 kts 247°
2026-04-25 02:28 35.35319 74.44450 28028 ft 420 kts 247°
2026-04-25 02:29 35.34116 74.41191 28254 ft 421 kts 247°
2026-04-25 02:29 35.32918 74.37964 28644 ft 420 kts 247°
2026-04-25 02:29 35.31706 74.34704 28959 ft 422 kts 248°
2026-04-25 02:29 35.30491 74.31433 29365 ft 421 kts 248°
2026-04-25 02:30 35.29271 74.28152 29684 ft 423 kts 248°
2026-04-25 02:30 35.28043 74.24847 29929 ft 425 kts 248°
2026-04-25 02:30 35.26833 74.21593 30314 ft 424 kts 248°
2026-04-25 02:30 35.25615 74.18326 30759 ft 421 kts 248°
2026-04-25 02:31 35.24396 74.15061 31169 ft 418 kts 248°
2026-04-25 02:31 35.23185 74.11824 31343 ft 419 kts 248°
2026-04-25 02:31 35.21971 74.08582 31691 ft 418 kts 249°
2026-04-25 02:31 35.20726 74.05359 32088 ft 417 kts 245°
2026-04-25 02:32 35.19219 74.02384 32468 ft 417 kts 238°
2026-04-25 02:32 35.17348 73.99640 32784 ft 420 kts 232°
2026-04-25 02:32 35.15352 73.97038 33158 ft 418 kts 232°
2026-04-25 02:32 35.13358 73.94438 33397 ft 419 kts 233°
2026-04-25 02:33 35.11362 73.91824 33714 ft 419 kts 233°
2026-04-25 02:33 35.09389 73.89221 34092 ft 416 kts 233°
2026-04-25 02:33 35.07429 73.86634 34410 ft 414 kts 233°
2026-04-25 02:33 35.05495 73.84081 34654 ft 416 kts 233°
2026-04-25 02:34 35.03525 73.81478 34856 ft 417 kts 233°
2026-04-25 02:34 35.01556 73.78878 35173 ft 415 kts 233°
2026-04-25 02:34 34.99602 73.76286 35407 ft 415 kts 233°
2026-04-25 02:34 34.97641 73.73701 35715 ft 413 kts 233°
2026-04-25 02:35 34.95688 73.71133 35992 ft 413 kts 233°
2026-04-25 02:35 34.93734 73.68562 36251 ft 413 kts 233°
2026-04-25 02:35 34.91798 73.66011 36306 ft 418 kts 233°
2026-04-25 02:36 34.87851 73.60824 36239 ft 411 kts 233°
2026-04-25 02:36 34.84052 73.55767 36298 ft 401 kts 233°
2026-04-25 02:37 34.80124 73.50845 36205 ft 412 kts 227°
2026-04-25 02:37 34.75282 73.46971 36202 ft 430 kts 214°
2026-04-25 02:38 34.69609 73.44297 36180 ft 440 kts 208°
2026-04-25 02:38 34.63837 73.41803 36172 ft 439 kts 208°
2026-04-25 02:39 34.58152 73.39307 36138 ft 429 kts 209°
2026-04-25 02:39 34.52535 73.36806 36113 ft 429 kts 209°
2026-04-25 02:40 34.46951 73.34321 36103 ft 429 kts 208°
2026-04-25 02:40 34.41324 73.31817 36075 ft 431 kts 209°
2026-04-25 02:41 34.35649 73.29294 36070 ft 437 kts 209°
2026-04-25 02:41 34.29809 73.26990 36068 ft 448 kts 205°
2026-04-25 02:42 34.23839 73.24756 36051 ft 450 kts 208°
2026-04-25 02:42 34.17947 73.22158 36007 ft 449 kts 208°
2026-04-25 02:43 34.12103 73.19621 36018 ft 442 kts 208°
2026-04-25 02:43 34.06326 73.17198 35980 ft 443 kts 204°
2026-04-25 02:44 34.00128 73.16013 36013 ft 456 kts 192°
2026-04-25 02:44 33.93818 73.15515 35995 ft 456 kts 192°
2026-04-25 02:45 33.87514 73.15036 35948 ft 453 kts 192°
2026-04-25 02:45 33.81244 73.14461 35951 ft 458 kts 192°
2026-04-25 02:46 33.74850 73.13876 36028 ft 461 kts 192°
2026-04-25 02:46 33.68424 73.13299 35986 ft 468 kts 192°
2026-04-25 02:47 33.61908 73.12727 35958 ft 468 kts 190°
2026-04-25 02:47 33.55381 73.13323 35937 ft 474 kts 178°
2026-04-25 02:48 33.48863 73.14539 35961 ft 471 kts 179°
2026-04-25 02:48 33.42414 73.15642 35942 ft 469 kts 179°
2026-04-25 02:49 33.35948 73.16710 35936 ft 468 kts 179°
2026-04-25 02:49 33.29480 73.17795 35931 ft 468 kts 179°
2026-04-25 02:50 33.23047 73.18873 35936 ft 469 kts 179°
2026-04-25 02:50 33.19808 73.19415 35816 ft 469 kts 179°
2026-04-25 02:50 33.16556 73.19957 35078 ft 472 kts 179°
2026-04-25 02:50 33.13290 73.20506 34445 ft 473 kts 179°
2026-04-25 02:51 33.10066 73.21046 33744 ft 474 kts 179°
2026-04-25 02:51 33.06796 73.21591 33149 ft 472 kts 179°
2026-04-25 02:51 33.03548 73.22135 32642 ft 467 kts 179°
2026-04-25 02:51 33.00345 73.22671 32166 ft 462 kts 179°
2026-04-25 02:52 32.97204 73.23196 31695 ft 458 kts 179°
2026-04-25 02:52 32.94058 73.23720 31240 ft 454 kts 179°
2026-04-25 02:52 32.90941 73.24238 30783 ft 451 kts 179°
2026-04-25 02:52 32.87840 73.24752 30333 ft 448 kts 178°
2026-04-25 02:53 32.84761 73.25263 29841 ft 445 kts 178°
2026-04-25 02:53 32.81690 73.25773 29330 ft 442 kts 178°
2026-04-25 02:53 32.78675 73.26504 28829 ft 445 kts 168°
2026-04-25 02:53 32.75770 73.27858 28395 ft 447 kts 159°
2026-04-25 02:54 32.73113 73.29699 27994 ft 449 kts 149°
2026-04-25 02:54 32.70622 73.31925 27541 ft 446 kts 147°
2026-04-25 02:54 32.68174 73.34197 27082 ft 444 kts 146°
2026-04-25 02:54 32.65756 73.36460 26628 ft 441 kts 146°
2026-04-25 02:55 32.63370 73.38682 26178 ft 438 kts 147°
2026-04-25 02:55 32.60970 73.40892 25732 ft 435 kts 147°
2026-04-25 02:55 32.58578 73.43081 25291 ft 432 kts 147°
2026-04-25 02:55 32.56201 73.45245 24833 ft 430 kts 147°
2026-04-25 02:56 32.53828 73.47397 24382 ft 428 kts 147°
2026-04-25 02:56 32.51467 73.49534 23942 ft 426 kts 147°
2026-04-25 02:56 32.49117 73.51658 23484 ft 424 kts 147°
2026-04-25 02:56 32.46771 73.53773 22973 ft 422 kts 147°
2026-04-25 02:57 32.44473 73.55847 22513 ft 418 kts 147°
2026-04-25 02:57 32.42165 73.57931 22059 ft 415 kts 147°
2026-04-25 02:57 32.39871 73.60001 21624 ft 411 kts 147°
2026-04-25 02:57 32.37603 73.62046 21190 ft 407 kts 147°
2026-04-25 02:58 32.35382 73.64050 20783 ft 404 kts 147°
2026-04-25 02:58 32.33156 73.66059 20328 ft 401 kts 147°
2026-04-25 02:58 32.30947 73.68046 19918 ft 398 kts 147°
2026-04-25 02:58 32.28750 73.70020 19506 ft 395 kts 147°
2026-04-25 02:59 32.26564 73.71984 19085 ft 392 kts 147°
2026-04-25 02:59 32.24387 73.73939 18669 ft 391 kts 146°
2026-04-25 02:59 32.22222 73.75883 18249 ft 389 kts 146°
2026-04-25 02:59 32.20080 73.77805 17795 ft 387 kts 146°
2026-04-25 03:00 32.17958 73.79708 17347 ft 384 kts 146°
2026-04-25 03:00 32.15838 73.81610 16921 ft 380 kts 146°
2026-04-25 03:00 32.13737 73.83492 16515 ft 377 kts 147°
2026-04-25 03:00 32.11651 73.85361 16114 ft 374 kts 147°
2026-04-25 03:01 32.09588 73.87206 15708 ft 371 kts 146°
2026-04-25 03:01 32.07566 73.89014 15320 ft 368 kts 147°
2026-04-25 03:01 32.05526 73.90838 14929 ft 365 kts 147°
2026-04-25 03:01 32.03500 73.92648 14536 ft 363 kts 146°
2026-04-25 03:02 32.01492 73.94442 14155 ft 361 kts 147°
2026-04-25 03:02 31.99498 73.96220 13771 ft 359 kts 147°
2026-04-25 03:02 31.97533 73.97973 13347 ft 357 kts 147°
2026-04-25 03:02 31.95558 73.99732 12938 ft 354 kts 146°
2026-04-25 03:03 31.93598 74.01479 12545 ft 352 kts 146°
2026-04-25 03:03 31.91695 74.03239 12324 ft 344 kts 144°
2026-04-25 03:03 31.89833 74.04992 11964 ft 342 kts 144°
2026-04-25 03:03 31.87985 74.06729 11604 ft 340 kts 144°
2026-04-25 03:04 31.86139 74.08454 11229 ft 337 kts 144°
2026-04-25 03:04 31.84239 74.10039 10840 ft 333 kts 157°
2026-04-25 03:04 31.82090 74.10978 10510 ft 328 kts 164°
2026-04-25 03:05 31.77869 74.12620 10185 ft 311 kts 163°
2026-04-25 03:05 31.75847 74.13413 10055 ft 302 kts 163°
2026-04-25 03:05 31.73880 74.14189 9927 ft 294 kts 163°
2026-04-25 03:05 31.71979 74.14943 9690 ft 291 kts 163°
2026-04-25 03:06 31.70064 74.15706 9394 ft 290 kts 163°
2026-04-25 03:06 31.68161 74.16468 9103 ft 288 kts 163°
2026-04-25 03:06 31.66263 74.17228 8805 ft 287 kts 163°
2026-04-25 03:06 31.64380 74.17982 8530 ft 285 kts 163°
2026-04-25 03:07 31.62503 74.18735 8245 ft 285 kts 163°
2026-04-25 03:07 31.60630 74.19487 7955 ft 284 kts 162°
2026-04-25 03:07 31.59395 74.19982 7767 ft 283 kts 162°
2026-04-25 03:07 31.57530 74.20730 7482 ft 283 kts 162°
2026-04-25 03:08 31.55673 74.21474 7194 ft 282 kts 162°
2026-04-25 03:08 31.53816 74.22218 6908 ft 282 kts 162°
2026-04-25 03:08 31.51964 74.22958 6620 ft 281 kts 162°
2026-04-25 03:08 31.50108 74.23703 6323 ft 282 kts 162°
2026-04-25 03:09 31.48251 74.24446 6004 ft 282 kts 162°
2026-04-25 03:09 31.46407 74.25183 5720 ft 281 kts 162°
2026-04-25 03:09 31.44547 74.25926 5428 ft 281 kts 162°
2026-04-25 03:09 31.42702 74.26662 5195 ft 278 kts 162°
2026-04-25 03:10 31.40880 74.27389 4973 ft 276 kts 162°
2026-04-25 03:10 31.39076 74.28111 4811 ft 271 kts 162°
2026-04-25 03:10 31.37311 74.28816 4682 ft 265 kts 162°
2026-04-25 03:10 31.35620 74.29592 4549 ft 259 kts 149°
2026-04-25 03:11 31.34404 74.31086 4409 ft 254 kts 116°
2026-04-25 03:11 31.33954 74.33013 4357 ft 243 kts 92°
2026-04-25 03:11 31.34090 74.34931 4178 ft 237 kts 79°
2026-04-25 03:11 31.34359 74.36833 3964 ft 237 kts 78°
2026-04-25 03:12 31.34740 74.38700 3676 ft 237 kts 62°
2026-04-25 03:12 31.35862 74.40015 3424 ft 228 kts 20°
2026-04-25 03:12 31.37397 74.40296 3189 ft 222 kts 358°
2026-04-25 03:12 31.38934 74.40257 2899 ft 220 kts 358°
2026-04-25 03:13 31.40463 74.40255 2607 ft 218 kts
2026-04-25 03:13 31.41969 74.40284 2336 ft 216 kts 360°
2026-04-25 03:13 31.43443 74.40310 2093 ft 207 kts 360°
2026-04-25 03:13 31.44858 74.40334 1826 ft 199 kts
2026-04-25 03:14 31.46200 74.40358 1581 ft 185 kts
2026-04-25 03:14 31.47439 74.40379 1373 ft 172 kts
2026-04-25 03:14 31.48606 74.40403 1107 ft 164 kts
2026-04-25 03:14 31.49697 74.40410 947 ft 156 kts 359°
2026-04-25 03:15 31.50789 74.40436 751 ft 156 kts 357°
2026-04-25 03:15 31.51831 74.40452 717 ft 145 kts
2026-04-25 03:15 31.52695 74.40468 719 ft 102 kts
2026-04-25 03:15 31.53249 74.40479 724 ft 56 kts
2026-04-25 03:16 31.53502 74.40482 722 ft 29 kts
2026-04-25 03:16 31.53657 74.40558 720 ft 24 kts 94°
2026-04-25 03:16 31.53529 74.40683 719 ft 26 kts 163°
2026-04-25 03:16 31.53353 74.40693 720 ft 25 kts 182°
2026-04-25 03:17 31.53264 74.40689 721 ft 24 kts 181°
2026-04-25 03:17 31.53142 74.40686 720 ft 23 kts 181°
2026-04-25 03:18 31.52985 74.40682 717 ft 22 kts 179°
2026-04-25 03:18 31.52832 74.40678 719 ft 22 kts 182°
2026-04-25 03:18 31.52683 74.40673 716 ft 21 kts 181°
2026-04-25 03:18 31.52541 74.40673 718 ft 20 kts 180°
2026-04-25 03:19 31.52413 74.40712 717 ft 20 kts 120°
2026-04-25 03:19 31.52362 74.40844 718 ft 19 kts 167°
2026-04-25 03:19 31.52265 74.40846 718 ft 0 kts 175°
2026-04-25 03:19 31.52262 74.40846 718 ft 3 kts 178°
2026-04-25 03:20 31.52248 74.40878 719 ft 7 kts 94°
2026-04-25 03:20 31.52235 74.40937 716 ft 8 kts 128°
2026-04-25 03:20 31.52216 74.40955 716 ft 0 kts 141°